Weather in Manikovtsy

Ukraine / Khmelnitsky District     49°13′37″N   27°12′28″E
temp.,
°C
wind,
m/s
gust,
m/s
humid.,
%
clouds,
%
prec.,
mm/h
press.,
hPa
HPBL,
m
14 may, fri
fri1400:00+8sse6149111 0.0 1006441
03:00+8sse512969 0.0 1006330
06:00+7sse389760 0.0 1005183
09:00+12s457838 0.0 1005380
12:00+15s4570100 0.0 1005949
15:00+15ssw5678100 1.7 1005857
18:00+14sw567999 0.4 1006537
21:00+12ssw3792100 0.7 1007197
15 may, sat
sat1500:00+11wsw3786100 0.0 1008198
03:00+9wsw3588100 0.0 1009100
06:00+10sw368199 0.0 1009180
09:00+10wsw4890100 0.1 1010487
12:00+13w678091 0.1 1011929
15:00+12w587531 0.3 1012720
18:00+13wnw347352 0.0 1012553
21:00+10s11895 0.0 101210
16 may, sun
sun1600:00+9se228926 0.0 101211
03:00+9ese32905 0.1 101225
06:00+8ese368878 0.0 101292
09:00+14se61078100 0.0 1012459
12:00+19sse6963100 0.0 10101058
15:00+21sse8105388 0.1 10092326
18:00+19sse7106384 0.3 10071008
21:00+14se4118158 0.3 1007190
17 may, mon
mon1700:00+12w5109793 1.1 1008378
03:00+12w1295100 1.9 100838
06:00+12nw279798 0.4 1008307
09:00+13nw479182 0.9 1009521
12:00+15nw567699 0.3 1009989
15:00+15nw566791 0.4 10091017
18:00+16wnw3667100 0.1 1009230
21:00+12ne11800 0.1 101010
18 may, tue
tue1800:00+10ssw118453 0.0 101110
03:00+10s2283100 0.0 101119
06:00+11sse2284100 0.1 101116
09:00+13se3679100 0.1 1011274
12:00+17se586693 0.0 1010946
15:00+19sse6964100 0.6 10071543
18:00+17ese61180100 2.3 1005483
21:00+14ne1699100 32.4 1000542